This demonstration page uses our WeatherBlox Daily Observations layout. Learn more.

Left ArrowRight Arrow

39.51506, -84.39828

Hourly Observations for April 27, 2017

Temp ( °F °C ) Dew Point ( °F °C ) Humidity (%) Winds ( mph kmh ) Pressure ( in mb ) Visibility ( mi km ) Precip ( " mm )
12:15 am 00:15 Clear 69 20.8 50 10.1 51 51 Calm 29.59 1002 10 16 0.00 0.00
12:35 am 00:35 Clear 64 17.5 49 9.7 60 60 Calm 29.59 1002 10 16 0.00 0.00
12:55 am 00:55 Clear 70 21 47 8.1 44 44 SSE 8 13 29.59 1002 10 16 0.00 0.00
1:15 am 01:15 Clear 72 22 48 8.8 43 43 SSE 6 9 29.59 1002 10 16 0.00 0.00
1:35 am 01:35 Clear 72 22 48 9 44 44 SSE 7 11 29.59 1002 10 16 0.00 0.00
1:55 am 01:55 Clear 74 23.6 49 9.6 41 41 S 13 20 29.59 1002 10 16 0.00 0.00
2:15 am 02:15 Clear 74 23.6 49 9.6 41 41 S 14 22 29.59 1002 10 16 0.00 0.00
2:35 am 02:35 Clear 74 23.6 51 10.6 44 44 S 15 24 29.59 1002 10 16 0.00 0.00
2:55 am 02:55 Clear 74 23.6 52 11 45 45 S 10 17 29.59 1002 10 16 0.00 0.00
3:15 am 03:15 Clear 73 22.5 51 10.8 48 48 S 10 17 29.59 1002 10 16 0.00 0.00
3:35 am 03:35 Clear 71 21.6 51 10.7 50 50 SSE 7 11 29.59 1002 10 16 0.00 0.00
3:55 am 03:55 Clear 71 21.5 51 10.7 50 50 S 9 15 29.56 1001 10 16 0.00 0.00
4:15 am 04:15 Mostly Cloudy 72 22.3 52 11.3 50 50 S 9 15 29.56 1001 10 16 0.00 0.00
4:35 am 04:35 Cloudy 74 23.6 54 12.3 49 49 S 14 22 29.59 1002 10 16 0.00 0.00
4:55 am 04:55 Cloudy 74 23.6 54 12.3 49 49 S 16 26 29.59 1002 10 16 0.00 0.00
5:15 am 05:15 Cloudy 72 22.3 53 11.7 51 51 S 12 19 29.59 1002 10 16 0.00 0.00
5:35 am 05:35 Mostly Cloudy 69 20.8 48 9 47 47 W 6 9 29.59 1002 10 16 0.00 0.00
5:55 am 05:55 Partly Cloudy 69 20.8 49 9.3 48 48 Calm 29.56 1001 10 16 0.00 0.00
6:15 am 06:15 Clear 69 20.8 50 10.2 51 51 S 6 9 29.59 1002 10 16 0.00 0.00
6:35 am 06:35 Partly Cloudy 67 19.5 49 9.6 53 53 Calm 29.56 1001 10 16 0.00 0.00
6:55 am 06:55 Partly Cloudy 69 20.8 50 10.1 51 51 S 7 11 29.59 1002 10 16 0.00 0.00
7:15 am 07:15 Mostly Cloudy with Light Rain 69 20.8 52 11.1 54 54 SSE 6 9 29.59 1002 10 16 0.00 0.00
7:35 am 07:35 Cloudy 69 20.8 51 10.5 52 52 SE 6 9 29.56 1001 10 16 0.00 0.00
7:55 am 07:55 Cloudy 69 20.8 51 10.5 52 52 SSW 8 13 29.56 1001 10 16 0.00 0.00
8:15 am 08:15 Mostly Cloudy 69 20.5 53 11.9 58 58 SSW 7 11 29.59 1002 10 16 0.00 0.00
8:35 am 08:35 Mostly Cloudy 67 19.5 54 12.2 63 63 SW 5 7 29.59 1002 10 16 0.00 0.00
8:55 am 08:55 Mostly Cloudy 68 19.9 56 13.1 65 65 Calm 29.59 1002 10 16 0.00 0.00
9:15 am 09:15 Cloudy 69 20.8 55 12.5 59 59 SSW 6 9 29.59 1002 10 16 0.00 0.00
9:35 am 09:35 Cloudy 69 20.8 55 12.8 60 60 SW 8 13 29.59 1002 10 16 0.00 0.00
9:55 am 09:55 Cloudy with Rain 64 17.9 53 11.6 67 67 SW 23 37 29.62 1003 10 16 0.00 0.00
10:15 am 10:15 Cloudy 62 16.6 55 12.6 77 77 SW 14 22 29.62 1003 N/A 0.00 0.00
10:35 am 10:35 Cloudy 62 16.6 55 12.8 78 78 SW 10 17 29.62 1003 N/A 0.00 0.00
10:55 am 10:55 Cloudy 64 18 57 14 78 78 SW 12 19 29.62 1003 10 16 0.00 0.00
11:15 am 11:15 Cloudy with Light Rain 64 18 56 13.6 76 76 SSW 13 20 29.62 1003 N/A 0.00 0.00
11:35 am 11:35 Cloudy with Drizzle 64 17.6 57 13.8 79 79 SSW 9 15 29.65 1004 10 16 0.00 0.00
11:55 am 11:55 Cloudy 67 19.5 59 15.1 76 76 SSW 10 17 29.62 1003 10 16 0.00 0.00
12:15 pm 12:15 Mostly Cloudy 69 20.8 60 15.5 72 72 SSW 12 19 29.62 1003 10 16 0.00 0.00
12:35 pm 12:35 Cloudy 69 20.8 58 14.5 67 67 SSW 15 24 29.62 1003 10 16 0.00 0.00
12:55 pm 12:55 Mostly Cloudy 70 21.2 56 13.2 60 60 SSW 20 31 29.62 1003 10 16 0.00 0.00
1:15 pm 13:15 Mostly Cloudy 63 17.3 57 13.8 80 80 SW 13 20 29.65 1004 7 11 0.00 0.00
1:35 pm 13:35 Partly Cloudy 69 20.8 58 14.3 66 66 WSW 15 24 29.65 1004 10 16 0.00 0.00
1:55 pm 13:55 Mostly Cloudy 69 20.8 55 12.9 61 61 WSW 17 28 29.65 1004 10 16 0.00 0.00
2:15 pm 14:15 Mostly Cloudy 69 20.8 54 12.2 58 58 WSW 21 33 29.68 1005 10 16 0.00 0.00
2:35 pm 14:35 Mostly Cloudy 69 20.8 53 11.5 55 55 SW 22 35 29.68 1005 10 16 0.00 0.00
2:55 pm 14:55 Partly Cloudy 69 20.8 51 10.7 53 53 WSW 16 26 29.71 1006 10 16 0.00 0.00
3:15 pm 15:15 Partly Cloudy 69 20.8 50 10.2 51 51 WSW 17 28 29.71 1006 10 16 0.00 0.00
3:35 pm 15:35 Partly Cloudy 67 19.5 47 8.6 50 50 SW 17 28 29.74 1007 10 16 0.00 0.00
3:55 pm 15:55 Mostly Cloudy 67 19.7 49 9.7 53 53 WSW 17 28 29.74 1007 10 16 0.00 0.00
4:15 pm 16:15 Mostly Cloudy 67 19.5 47 8.6 50 50 SW 16 26 29.74 1007 10 16 0.00 0.00
4:35 pm 16:35 Mostly Cloudy 64 18 45 7.2 49 49 SW 16 26 29.74 1007 10 16 0.00 0.00
4:55 pm 16:55 Cloudy 64 18 44 6.9 48 48 SW 16 26 29.77 1008 10 16 0.00 0.00
5:15 pm 17:15 Mostly Cloudy 64 18 43 6.1 46 46 WSW 16 26 29.77 1008 10 16 0.00 0.00
5:35 pm 17:35 Partly Cloudy 64 18 43 6.1 46 46 WSW 14 22 29.77 1008 10 16 0.00 0.00
5:55 pm 17:55 Partly Cloudy 64 17.9 41 5 43 43 WSW 16 26 29.77 1008 10 16 0.00 0.00
6:15 pm 18:15 Partly Cloudy 63 17.1 42 5.5 47 47 WSW 14 22 29.80 1009 10 16 0.00 0.00
6:35 pm 18:35 Mostly Cloudy 62 16.6 42 5.7 49 49 WSW 14 22 29.80 1009 10 16 0.00 0.00
6:55 pm 18:55 Partly Cloudy 63 17 42 5.4 47 47 SW 12 19 29.80 1009 10 16 0.00 0.00
7:15 pm 19:15 Mostly Cloudy 62 16.4 41 4.9 47 47 WSW 14 22 29.83 1010 10 16 0.00 0.00
7:35 pm 19:35 Mostly Cloudy 61 16 40 4.5 47 47 WSW 15 24 29.83 1010 10 16 0.00 0.00
7:55 pm 19:55 Partly Cloudy 60 15.8 41 4.8 48 48 WSW 12 19 29.83 1010 10 16 0.00 0.00
8:15 pm 20:15 Sunny 60 15.3 42 5.6 53 53 WSW 12 19 29.83 1010 10 16 0.00 0.00
8:35 pm 20:35 Clear 60 15.3 44 6.5 56 56 WSW 7 11 29.83 1010 10 16 0.00 0.00
8:55 pm 20:55 Clear 57 13.8 43 6.1 60 60 WSW 5 7 29.83 1010 10 16 0.00 0.00
9:15 pm 21:15 Clear 56 13.4 44 6.5 63 63 SW 5 7 29.85 1011 10 16 0.00 0.00
9:35 pm 21:35 Clear 55 12.5 43 6.3 66 66 SW 5 7 29.85 1011 10 16 0.00 0.00
9:55 pm 21:55 Clear 55 12.5 44 6.7 68 68 SW 3 6 29.88 1012 10 16 0.00 0.00
10:15 pm 22:15 Clear 55 12.5 45 7.1 70 70 SW 6 9 29.88 1012 10 16 0.00 0.00
10:35 pm 22:35 Clear 55 12.5 45 7.2 70 70 SW 5 7 29.91 1013 10 16 0.00 0.00
10:55 pm 22:55 Clear 55 12.5 44 6.7 68 68 Calm 29.88 1012 10 16 0.00 0.00
11:15 pm 23:15 Clear 55 12.5 45 7.3 71 71 Calm 29.91 1013 10 16 0.00 0.00
11:35 pm 23:35 Clear 52 10.9 45 7.3 79 79 Calm 29.91 1013 10 16 0.00 0.00
11:55 pm 23:55 Clear 49 9.7 44 6.4 80 80 Calm 29.91 1013 10 16 0.00 0.00

Powered by AerisWeather